Погода в Канаклейке

Россия / Республика Мордовия     54°46′17″N   46°02′50″E
темп.,
°C
ветер,
м/с
пор.,
м/с
влажн.,
%
обл.,
%
осадки,
мм/ч
давл.,
гПа
погр.,
м
27 сентября, пн
пн2700:00+9св4992100 0.3 1007349
03:00+9ссв51092100 0.6 1009433
06:00+8ссв5109199 0.2 1010380
09:00+9ссв71087100 0.2 1011644
12:00+9ссв6887100 0.1 1012950
15:00+7св5890100 1.4 1014981
18:00+5св5996100 0.5 1017776
21:00+4св61195100 0.8 1019779
28 сентября, вт
вт2800:00+5св61087100 0.2 1021751
03:00+4св61085100 0.2 1023972
06:00+4св5108391 0.0 1025644
09:00+4св69746 0.0 1027655
12:00+8св685617 0.0 10271115
15:00+9св6748100 0.0 10281366
18:00+5ссв37645 0.0 1029173
21:00+3ссв227454 0.0 103141
29 сентября, ср
ср2900:00+2ссв2278100 0.0 103136
03:00+2с2381100 0.0 103152
06:00+1с2482100 0.0 103296
09:00+5ссв35645 0.0 1033455
12:00+9ссв34515 0.0 10321185
15:00+10ссв34465 0.0 10321437
18:00+6с22605 0.0 103213
21:00+4с11675 0.0 103310
30 сентября, чт
чт3000:00+3с117319 0.0 103310
03:00+3с117831 0.0 103410
06:00+3сз117867 0.0 103413
09:00+7с126371 0.0 1035266
12:00+9сз225479 0.0 1034880
15:00+11сз335269 0.0 10341265
18:00+8зсз2265100 0.0 103325
21:00+8з3766100 0.0 1033215
1 октября, пт
пт100:00+8з3673100 0.0 1033157
03:00+8з378089 0.0 1033207
06:00+8зсз3882100 0.0 1033288
09:00+10сз46786 0.0 1033425
12:00+14ссз566583 0.0 10321115
15:00+15ссз565868 0.0 10311332
18:00+12ссз237179 0.0 103270
21:00+11ссз237775 0.0 103361